Regional Weather Roundup
Issued by NWS

Home | Current Version | Previous Version | Graphics & Text | Print | Product List | Glossary On
Versions: 1 2 3 4 5 6 7 8 9 10 11 12 13 14 15 16 17 18 19 20 21 22 23 24 25 26 27 28 29 30 31 32 33 34 35 36 37 38 39 40 41 42 43 44 45 46 47 48 49 50
000
ASUS43 KMPX 270801
RWRMN
WEATHER ROUNDUP FOR MINNESOTA
NATIONAL WEATHER SERVICE TWIN CITIES/CHANHASSEN MN
300 AM CDT WED MAY 27 2015


NOTE: "FAIR" INDICATES FEW OR NO CLOUDS BELOW 12,000 FEET WITH NO
SIGNIFICANT WEATHER AND/OR OBSTRUCTIONS TO VISIBILITY. N/A MEANS
CURRENT SKY AND/OR WEATHER CONDITIONS ARE NOT AVAILABLE.

MNZ060>063-068>070-270900-
   Twin Cities Metro

CITY           SKY/WX    TMP DP  RH WIND       PRES   REMARKS
TWIN CITIES    CLOUDY    57  55  93 CALM      29.84R FOG
ST PAUL        CLOUDY    56  55  97 CALM      29.84R
CRYSTAL        CLOUDY    55  54  96 CALM      29.82R
BLAINE         CLOUDY    57  57 100 CALM      29.83S FOG
LAKEVILLE      CLOUDY    55  54  94 CALM      29.84R
EDEN PRAIRIE   CLOUDY    55  54  96 SW3       29.83R FOG
SOUTH ST PAUL  CLOUDY    57  56  95 CALM      29.84R
LAKE ELMO      FAIR      55  55 100 CALM      29.84R FOG
$$
MNZ001>005-007-008-013>017-022>024-027-028-270900-
   Northwest Minnesota

CITY           SKY/WX    TMP DP  RH WIND       PRES   REMARKS
BEMIDJI        CLEAR     50  48  92 CALM      29.78S
HALLOCK        PTCLDY    61  48  63 N9        29.79S
ROSEAU         CLEAR     57  50  77 NW6       29.78R
WARROAD        CLEAR     57  52  82 NW7       29.77S
THIEF RVR FALL PTCLDY    57  54  88 CALM      29.78S
CROOKSTON      PTCLDY    54  48  82 NW5       29.80R
FOSSTON        CLEAR     52  50  93 S6        29.79S
DETROIT LAKES  CLEAR     59  54  82 CALM      29.82R
MOORHEAD       CLEAR     57  52  82 CALM      29.80S
PARK RAPIDS    CLEAR     57  51  80 CALM      29.79S
MAHNOMEN       FAIR      55  52  91 S8        29.79S
$$
MNZ006-009>011-018-025>026-270900-
   North Central Minnesota

CITY           SKY/WX    TMP DP  RH WIND       PRES   REMARKS
BAUDETTE       CLEAR     57  50  77 NW6       29.75S
FLAG ISLAND    CLEAR     61  52  72 NW14      29.75S
INTL FALLS     CLEAR     51  49  92 CALM      29.74R
WASKISH        CLEAR     59  55  88 CALM      29.76S
BIG FORK       CLEAR     54  52  94 CALM      29.77F FOG
LONGVILLE      PTCLDY    50  50 100 CALM      29.79S
GRAND RAPIDS   PTCLDY    54  48  82 S3        29.79S
CRANE LAKE     PTCLDY    48  46  93 CALM      29.76S
ORR            PTCLDY    55  50  82 CALM      29.74S
COOK           PTCLDY    55  52  88 CALM      29.77S
WALKER         FAIR      53  52  97 CALM      29.78S
$$
MNZ012-019>021-037-270900-
   Northeast Minnesota

CITY           SKY/WX    TMP DP  RH WIND       PRES   REMARKS
DULUTH         CLOUDY    52  49  89 W7        29.79R
HIBBING        PTCLDY    47  44  90 CALM      29.78S
EVELETH        CLOUDY    54  50  87 W3        29.79S
DULUTH HARBOR  CLOUDY    54  52  94 SW5       29.79S
TWO HARBORS    CLOUDY    54  48  82 W3        29.75S
GRAND MARAIS     N/A     44  41  89 W5        29.72S
G MARAIS ARPRT MOCLDY    54  46  76 W8        29.74F
$$
MNZ029>031-032-039>041-046>048-054>057-064-270900-
   West Central Minnesota

CITY           SKY/WX    TMP DP  RH WIND       PRES   REMARKS
FERGUS FALLS   CLEAR     55  54  94 SW5       29.82S
WHEATON        PTCLDY    57  48  72 W6        29.84S
MORRIS         PTCLDY    55  54  94 W6        29.82S
ALEXANDRIA     PTCLDY    56  54  93 SW9       29.84R
ELBOW LAKE     FAIR      54  52  92 SW6       29.82S
WADENA         CLEAR     55  52  88 CALM      29.80S
GLENWOOD       MOCLDY    54  54 100 SW6       29.84S
APPLETON       PTCLDY    55  52  88 SW6       29.83S
BENSON         PTCLDY    55  52  88 CALM      29.83F
ORTONVILLE     CLEAR     57  48  72 W5        29.84S
MADISON        CLEAR     54  50  87 W6        29.85S
WILLMAR        FAIR      57  55  94 CALM      29.85F
$$
MNZ033>034-036-042>043-049>051-058-059-270900-
   Central Minnesota

CITY           SKY/WX    TMP DP  RH WIND       PRES   REMARKS
ST CLOUD       CLOUDY    54  53  97 CALM      29.82S
SAUK CENTRE    FAIR      56  55  94 SW7       29.83S
PAYNESVILLE    MOCLDY    51  51 100 CALM      29.83F
AITKIN         MOCLDY    52  46  82 CALM      29.79S
PINE RIVER     PTCLDY    52  52 100 CALM      29.84S
BRAINERD       MOCLDY    52  51  97 S3        29.81S
STAPLES        PTCLDY    52  50  93 CALM      29.81R
LONG PRAIRIE   FAIR      54  54 100 S5        29.83S
LITTLE FALLS   FOG       52  52 100 CALM      29.82S VSB 1/2
LITCHFIELD     MOCLDY    57  57 100 CALM      29.85R
BUFFALO        CLOUDY    55  53  94 CALM      29.84S
MAPLE LAKE     CLOUDY    56  55  96 CALM      29.84S
$$
MNZ037-044-045-052-053-270900-
   East Central Minnesota

CITY           SKY/WX    TMP DP  RH WIND       PRES   REMARKS
PRINCETON      CLOUDY    54  52  94 CALM      29.83R
MORA           MOCLDY    50  48  93 CALM      29.84R
CAMBRIDGE      MOCLDY    54  46  76 CALM      29.81S HAZE
RUSH CITY      MOCLDY    51  50  95 CALM      29.82S
MOOSE LAKE     CLOUDY    48  48 100 CALM      29.79S
HINCKLEY       PTSUNNY   54  52  94 CALM      29.82R
CLOQUET        CLOUDY    52  46  82 CALM      29.79F
MCGREGOR       CLOUDY    54  52  94 CALM      29.81R
$$
MNZ071>073-080-081-089-090-097-098-270900-
   Southwest Minnesota

CITY           SKY/WX    TMP DP  RH WIND       PRES   REMARKS
MONTEVIDEO     PTCLDY    57  55  94 W7        29.85S
GRANITE FALLS  PTCLDY    53  51  94 S5        29.86F
CANBY          PTCLDY    56  50  79 W5        29.87S
MARSHALL       PTCLDY    55  48  76 W8        29.86S
REDWOOD FALLS  MOCLDY    56  54  93 SW9       29.85S
OLIVIA         PTCLDY    52  50  93 SW3       29.85R
WINDOM         CLOUDY    55  54  94 CALM      29.89R
WORTHINGTON    MOCLDY    54  50  87 W9        29.91R
JACKSON        CLOUDY    54  54 100 SW5       29.90R
TRACY          MOCLDY    57  53  86 SW7       29.87S
SLAYTON        MOCLDY    57  53  85 W12       29.90F
$$
MNZ065>067-074>077-082>085-091>093-270900-
   South Central Minnesota

CITY           SKY/WX    TMP DP  RH WIND       PRES   REMARKS
MANKATO        CLOUDY    55  54  94 W6        29.86S
NEW ULM        MOCLDY    54  54 100 SW5       29.86S
ST JAMES       CLOUDY    57  55  94 SW6       29.88R
FAIRMONT       CLOUDY    55  52  88 SW7       29.88R
GLENCOE        CLOUDY    56  56  99 SW3       29.84R
FARIBAULT      CLOUDY    55  55 100 SW3       29.85S FOG
OWATONNA       CLOUDY    57  55  94 SW5       29.86S FOG
WASECA         CLOUDY    55  55 100 SW8       29.88R FOG
ALBERT LEA     CLOUDY    57  57 100 CALM      29.87R FOG
$$
MNZ078>079-086>088-094>096-270900-
   Southeast Minnesota

CITY           SKY/WX    TMP DP  RH WIND       PRES   REMARKS
ROCHESTER      LGT RAIN  57  55  93 W8        29.86S
RED WING       CLOUDY    57  55  94 CALM      29.82S FOG
STANTON        CLOUDY    57  55  92 W3        29.83R
DODGE CENTER   DRIZZLE   57  55  94 W6        29.85F
AUSTIN         DRIZZLE   57  55  94 W3        29.86S
PRESTON        CLOUDY    56  55  94 W10       29.86R
$$
ABBREVIATIONS USED IN REMARKS
   TC - TEMPERATURES IN CELSIUS
  WCI - WIND CHILL INDEX
   HX - HEAT INDEX
  VSB - VISIBILITY
$$


USA.gov is the U.S. government's official web portal to all federal, state and local government web resources and services.